Wind_Speed
23 23 23 23 23 23 23 24 26 26 27 28 28 29 30 31 31 32 32 32 32 32 32 32 31 31 31 31 31 30 31 31 31 31 31 31 31 30 29 28 28 28 27
21 20 21 22 22 23 24 26 27 27 28 29 30 30 30 31 32 32 32 31 31 31 32 31 31 31 30 30 30 30 31 31 31 31 31 31 31 31 30 29 29 28 28
20 21 22 22 23 24 25 26 27 27 29 30 29 30 31 31 31 31 30 30 31 30 30 30 30 30 30 30 30 29 30 30 30 30 30 30 30 30 30 29 29 29 27
19 20 21 22 23 24 25 26 27 28 28 28 28 29 31 31 30 30 30 30 29 29 29 29 30 31 31 30 30 28 28 28 28 28 29 29 29 28 28 28 27 27 26
19 20 21 22 23 24 25 26 27 27 27 27 28 29 30 30 29 29 29 29 29 29 29 29 30 30 30 29 29 28 28 28 28 27 27 27 28 28 27 27 27 27 27
21 21 21 22 23 24 25 26 26 26 26 27 27 28 28 28 28 29 29 30 30 30 30 30 30 29 28 28 28 27 27 27 27 26 25 25 25 26 26 26 27 26 26
20 21 21 22 23 24 25 25 26 26 26 27 27 27 27 27 28 30 29 29 29 29 28 28 28 28 27 27 27 26 26 26 26 26 25 25 25 25 25 25 25 25 24
20 21 22 23 24 25 25 25 25 26 26 26 26 26 26 27 27 28 29 29 28 28 27 27 26 26 26 25 24 24 24 25 25 25 25 25 25 25 25 25 24 24 24
22 22 22 23 24 24 24 24 25 25 25 25 26 26 26 26 27 28 29 28 27 27 25 24 24 24 24 24 24 24 24 24 24 24 24 24 24 24 25 25 24 24 23
22 21 21 22 22 22 22 23 23 24 25 24 25 25 25 25 25 26 27 27 26 25 24 23 23 22 22 22 22 22 22 22 22 23 23 23 24 23 23 23 23 22 22
23 22 22 22 21 21 22 23 24 24 24 23 23 22 23 23 24 25 26 26 26 24 23 22 21 21 21 22 21 21 21 21 21 21 22 22 22 21 22 22 21 21 21
22 21 21 22 22 21 22 22 23 23 22 22 21 20 22 22 23 25 25 25 24 23 22 21 21 21 21 20 20 19 20 20 19 19 19 20 20 20 21 22 22 21 20
21 21 22 22 22 22 21 21 21 22 21 20 19 20 21 22 23 24 24 24 23 21 21 20 21 20 20 20 19 19 18 19 18 19 18 18 18 19 20 20 21 21 20
22 21 21 21 21 21 20 20 19 20 20 19 20 20 21 21 22 23 23 22 21 20 20 20 20 19 19 19 19 18 18 17 17 17 17 17 17 17 18 19 19 20 21
21 20 20 20 20 20 20 19 18 19 19 19 19 20 20 21 21 22 22 21 20 19 19 19 19 18 18 18 18 18 17 17 16 15 15 15 15 15 15 17 17 18 19
21 21 20 19 18 18 18 18 18 18 18 18 18 19 20 21 21 21 21 20 19 19 18 18 17 17 17 17 17 17 17 16 15 15 14 14 14 14 14 15 15 16 17
21 20 19 18 17 17 17 17 17 18 18 18 18 19 19 20 19 19 19 19 19 19 18 18 17 17 17 17 16 15 16 15 14 14 13 13 13 13 13 13 14 14 15
19 18 17 16 16 16 17 17 17 17 17 17 18 18 18 18 18 19 19 19 19 19 18 17 16 16 16 16 16 16 15 14 14 13 12 12 11 11 11 12 12 13 13
16 16 15 15 15 16 16 17 17 17 17 17 17 17 17 17 18 19 19 19 18 17 17 16 16 15 15 16 16 16 14 13 13 12 11 10 9 9 8 9 9 10 11
14 15 14 14 14 15 16 16 16 16 15 15 15 17 17 17 17 18 18 18 17 16 16 16 15 15 15 15 15 15 14 13 11 11 10 9 9 8 7 7 8 9 10
14 13 13 13 13 14 14 14 14 14 14 14 15 16 17 16 16 16 17 16 16 16 16 16 15 14 14 14 14 13 12 12 11 11 10 9 8 8 7 7 7 8 9
13 12 12 12 12 12 13 13 13 13 13 13 14 15 16 16 16 15 16 16 16 16 15 15 14 14 14 14 13 13 12 12 12 11 9 9 8 8 8 8 8 9 10
11 11 11 11 11 11 11 11 12 12 12 12 13 14 15 15 16 15 15 15 15 15 15 14 14 14 14 13 13 13 12 12 12 11 11 10 9 9 9 9 10 10 10
9 9 9 10 10 10 10 10 11 11 11 11 12 13 14 14 14 14 15 15 15 15 15 15 15 15 14 14 13 13 12 12 12 11 11 11 10 10 10 10 10 10 10
8 8 8 9 9 9 9 9 10 10 10 11 12 13 14 14 14 14 14 15 15 15 15 15 15 15 14 14 14 14 13 13 12 12 12 12 12 11 11 11 11 10 11
8 7 8 8 8 8 8 9 9 9 10 10 11 12 14 13 14 14 14 15 15 15 15 15 15 15 15 14 14 14 14 13 13 13 14 14 14 13 13 13 13 13 13
Wind_Direction
271 272 278 283 287 288 289 291 293 294 295 296 296 296 297 298 298 298 298 297 297 295 292 291 291 290 290 290 289 286 284 281 278 276 274 273 274 273 273 273 271 268 267
274 275 280 283 285 287 289 291 294 295 295 295 296 297 297 298 299 298 298 298 299 297 293 291 290 290 290 290 288 287 285 282 279 277 275 274 273 272 272 271 269 267 267
276 278 280 282 284 287 290 292 294 295 296 298 298 299 298 298 298 298 299 300 301 300 297 294 294 291 290 289 287 287 286 283 279 277 276 274 273 271 270 269 267 266 265
278 281 284 284 287 289 291 292 295 297 297 297 299 300 300 299 300 301 301 301 301 300 298 296 296 295 292 290 288 286 285 283 281 278 276 273 272 270 268 267 266 264 263
282 283 285 285 288 291 292 293 294 297 298 298 299 301 302 302 303 304 303 303 303 301 301 298 297 296 293 289 288 286 284 283 282 280 277 273 270 269 267 265 265 265 264
284 284 286 287 288 291 293 295 297 298 299 300 300 302 303 304 304 305 305 304 303 302 302 301 299 297 292 288 287 285 284 283 281 280 278 274 270 267 265 264 263 263 261
290 287 287 289 290 292 296 299 300 300 300 301 302 303 304 305 305 307 309 307 306 304 303 303 302 298 294 290 288 286 285 281 279 278 276 274 269 266 264 264 261 259 260
295 292 292 293 295 296 298 299 301 301 301 302 302 303 306 307 309 309 310 311 310 308 306 304 303 300 297 294 292 290 286 283 281 279 274 274 269 264 263 262 259 258 257
293 293 294 296 297 297 299 300 301 301 301 301 304 305 306 307 309 311 311 312 313 313 309 306 304 303 300 296 293 291 288 285 283 281 277 274 270 264 261 260 260 259 258
292 295 296 296 297 299 299 301 301 304 305 303 305 307 307 308 311 314 314 314 315 315 312 312 309 306 304 301 297 293 290 290 287 283 278 274 269 265 260 259 260 260 259
290 293 296 297 298 300 301 303 304 306 304 305 307 308 309 311 313 314 316 315 315 314 314 314 312 311 309 305 300 299 296 294 290 286 280 275 271 266 263 259 258 257 258
290 291 295 296 298 299 300 302 306 309 308 307 306 308 311 313 315 315 316 317 316 317 317 314 313 312 311 309 306 304 301 296 293 291 285 280 274 269 265 262 259 257 256
291 294 295 295 296 297 300 302 306 309 310 308 306 307 310 312 315 316 316 317 318 317 317 317 316 314 312 310 311 309 307 302 297 295 288 282 276 272 268 264 260 257 256
291 293 295 296 296 297 299 302 305 308 310 310 310 310 310 312 315 318 320 321 321 320 318 319 318 316 314 313 312 313 311 306 302 298 292 286 281 277 269 263 261 258 256
290 293 296 297 297 297 300 301 304 308 311 311 311 311 311 313 317 321 322 321 321 322 322 322 320 319 317 316 314 313 311 308 307 304 298 292 285 281 274 265 264 261 257
290 291 294 296 296 297 300 302 305 308 310 312 311 312 313 315 318 322 324 322 322 322 322 322 322 320 319 320 317 314 312 310 308 306 303 296 290 285 277 267 265 262 259
291 292 293 294 296 297 300 303 304 307 308 309 311 312 313 315 318 321 324 324 325 323 320 320 322 322 321 323 323 321 320 316 311 308 305 301 297 287 279 272 268 264 260
290 292 292 291 294 296 299 302 303 305 309 312 313 313 314 316 317 321 321 321 322 323 321 320 323 323 323 324 322 322 321 321 317 311 307 304 299 290 282 275 269 263 260
288 290 290 291 293 295 298 301 302 307 310 312 313 315 315 318 318 319 321 323 324 327 324 323 324 323 324 327 327 325 323 322 322 318 314 309 305 301 291 279 271 265 261
287 288 288 291 294 295 299 303 306 309 309 311 314 316 318 322 323 324 324 324 326 328 330 328 326 327 328 331 333 331 330 327 327 326 323 317 312 308 300 290 283 273 265
287 288 289 292 295 297 301 305 307 309 311 313 316 321 325 327 328 327 328 329 330 330 330 330 331 331 332 334 336 336 335 334 328 326 326 320 314 312 309 302 291 283 275
286 289 290 292 294 298 302 305 308 310 312 315 319 323 327 330 332 334 335 335 336 336 335 334 335 337 337 336 336 336 335 334 333 330 326 321 316 314 311 304 296 290 285
288 289 288 293 297 300 303 307 311 314 318 323 327 330 332 333 335 337 338 339 341 342 342 341 341 342 342 340 338 338 337 336 335 334 334 327 319 313 308 304 300 295 287
286 285 287 295 301 304 306 310 315 316 318 324 329 331 334 337 338 338 339 341 343 344 343 342 341 340 340 340 339 340 337 333 331 329 330 328 323 318 312 305 301 295 291
289 289 293 297 302 308 312 316 319 321 320 325 330 331 335 339 341 341 341 341 341 342 341 341 340 340 339 340 340 338 336 334 331 328 327 325 320 316 313 310 305 301 295
290 294 297 302 306 310 314 318 322 323 325 327 328 330 334 338 341 342 341 343 342 341 341 340 340 340 339 336 336 336 337 338 336 334 330 324 318 313 310 307 305 303 301
Height
5853 5853 5853 5853 5852 5851 5850 5849 5848 5846 5844 5842 5840 5838 5835 5833 5830 5827 5824 5821 5817 5815 5812 5810 5808 5805 5803 5801 5799 5798 5797 5796 5795 5796 5796 5797 5796 5796 5797 5798 5798 5799 5799
5849 5848 5849 5849 5848 5847 5846 5845 5843 5841 5839 5836 5834 5832 5829 5827 5824 5820 5817 5814 5811 5808 5805 5803 5800 5798 5795 5793 5792 5790 5789 5788 5787 5787 5788 5789 5790 5789 5790 5790 5791 5792 5792
5844 5844 5844 5844 5843 5842 5841 5840 5838 5836 5833 5831 5828 5825 5823 5820 5817 5814 5811 5808 5804 5800 5797 5795 5793 5790 5788 5786 5784 5782 5781 5779 5778 5778 5779 5780 5781 5781 5782 5782 5783 5784 5785
5840 5839 5839 5839 5839 5838 5836 5834 5833 5830 5828 5825 5822 5819 5816 5814 5811 5808 5804 5801 5797 5794 5790 5788 5785 5783 5780 5778 5776 5775 5773 5772 5771 5770 5770 5771 5772 5773 5774 5775 5776 5777 5778
5836 5835 5836 5835 5834 5833 5831 5829 5827 5825 5822 5819 5817 5814 5810 5807 5804 5801 5797 5794 5790 5787 5784 5781 5778 5775 5773 5770 5768 5767 5765 5764 5763 5763 5763 5763 5764 5765 5766 5768 5769 5769 5770
5832 5831 5831 5830 5829 5828 5826 5823 5821 5819 5816 5814 5811 5808 5805 5801 5798 5795 5791 5787 5784 5781 5777 5774 5770 5767 5765 5763 5761 5759 5758 5757 5756 5756 5755 5756 5756 5757 5758 5759 5761 5762 5763
5827 5828 5827 5825 5824 5823 5821 5818 5816 5813 5811 5808 5805 5802 5799 5796 5793 5789 5785 5781 5778 5774 5771 5767 5764 5761 5758 5756 5754 5752 5750 5749 5749 5748 5748 5748 5749 5749 5751 5752 5753 5754 5756
5823 5823 5822 5821 5819 5817 5815 5813 5811 5808 5805 5802 5799 5796 5793 5790 5787 5784 5780 5776 5772 5768 5765 5761 5758 5754 5752 5749 5747 5745 5744 5742 5742 5741 5741 5741 5741 5742 5744 5745 5746 5748 5749
5820 5818 5817 5816 5814 5812 5810 5808 5805 5803 5800 5797 5794 5791 5788 5785 5782 5778 5774 5771 5767 5763 5759 5755 5752 5749 5746 5743 5741 5739 5737 5736 5735 5734 5734 5734 5734 5735 5736 5738 5739 5741 5742
5815 5814 5813 5811 5809 5807 5805 5803 5800 5797 5794 5791 5789 5786 5782 5780 5776 5773 5769 5765 5761 5758 5754 5750 5747 5744 5741 5738 5735 5733 5732 5730 5729 5727 5727 5727 5727 5728 5729 5731 5732 5734 5736
5812 5810 5809 5807 5805 5803 5801 5798 5796 5792 5789 5786 5783 5781 5778 5775 5772 5769 5765 5761 5757 5753 5749 5746 5742 5739 5736 5733 5731 5728 5726 5725 5723 5721 5721 5721 5721 5721 5722 5724 5725 5727 5729
5808 5806 5804 5802 5800 5798 5796 5794 5791 5788 5785 5782 5779 5777 5774 5771 5768 5764 5761 5757 5753 5749 5745 5742 5738 5735 5732 5729 5726 5723 5721 5719 5717 5716 5715 5715 5715 5715 5716 5717 5719 5721 5723
5802 5801 5800 5798 5796 5794 5792 5789 5787 5784 5781 5778 5775 5773 5770 5767 5764 5761 5757 5753 5749 5745 5742 5738 5735 5731 5728 5725 5722 5719 5717 5714 5713 5711 5710 5710 5709 5709 5710 5711 5713 5715 5717
5799 5797 5795 5793 5791 5789 5787 5785 5783 5780 5777 5774 5772 5769 5766 5763 5760 5757 5753 5749 5745 5742 5738 5735 5731 5728 5725 5721 5718 5715 5713 5711 5709 5707 5706 5705 5705 5705 5705 5706 5707 5709 5711
5794 5792 5790 5789 5787 5785 5783 5781 5779 5776 5774 5771 5768 5765 5762 5759 5756 5753 5749 5745 5742 5739 5735 5732 5728 5725 5722 5718 5715 5712 5710 5708 5706 5704 5702 5702 5701 5701 5701 5702 5703 5704 5706
5789 5787 5786 5784 5782 5781 5779 5777 5775 5773 5770 5767 5764 5762 5759 5756 5753 5749 5746 5742 5739 5736 5732 5729 5726 5722 5719 5715 5712 5710 5707 5705 5703 5701 5699 5698 5698 5698 5697 5697 5698 5699 5701
5783 5782 5781 5780 5778 5777 5775 5773 5771 5769 5766 5764 5761 5758 5755 5752 5749 5746 5743 5740 5736 5733 5730 5726 5723 5720 5716 5713 5710 5707 5705 5702 5700 5698 5697 5696 5695 5694 5694 5694 5695 5696 5697
5779 5778 5777 5776 5775 5773 5772 5770 5768 5766 5763 5761 5758 5755 5752 5749 5746 5743 5740 5737 5734 5730 5727 5724 5721 5718 5714 5711 5709 5706 5703 5700 5698 5697 5695 5693 5692 5691 5691 5691 5692 5693 5694
5775 5774 5773 5772 5771 5770 5768 5766 5764 5762 5760 5757 5755 5752 5749 5746 5743 5740 5737 5734 5731 5728 5725 5722 5719 5716 5713 5710 5707 5704 5701 5699 5697 5695 5693 5692 5690 5690 5689 5689 5689 5690 5691
5770 5770 5769 5769 5768 5766 5765 5763 5761 5759 5757 5754 5752 5749 5746 5743 5740 5738 5735 5732 5729 5726 5723 5720 5717 5714 5711 5708 5705 5703 5700 5698 5696 5694 5692 5690 5689 5688 5688 5687 5687 5688 5688
5767 5766 5766 5765 5764 5763 5761 5760 5758 5756 5754 5752 5750 5747 5744 5741 5738 5736 5733 5729 5727 5724 5721 5717 5715 5712 5710 5707 5704 5702 5699 5697 5695 5693 5691 5690 5688 5687 5686 5686 5686 5686 5686
5763 5763 5762 5762 5761 5760 5759 5757 5756 5754 5752 5749 5747 5745 5742 5740 5737 5734 5731 5728 5725 5722 5719 5716 5714 5711 5708 5706 5703 5701 5699 5697 5694 5692 5691 5689 5688 5686 5685 5685 5684 5683 5683
5760 5760 5759 5759 5758 5757 5756 5755 5754 5752 5749 5747 5745 5743 5741 5738 5735 5733 5730 5727 5724 5721 5718 5715 5713 5710 5708 5705 5703 5700 5698 5696 5694 5692 5690 5689 5687 5685 5684 5683 5682 5681 5681
5757 5757 5756 5756 5756 5755 5754 5753 5751 5750 5748 5746 5744 5742 5739 5737 5734 5731 5729 5726 5723 5720 5717 5715 5712 5710 5707 5705 5702 5700 5697 5695 5693 5691 5690 5688 5686 5684 5683 5682 5680 5679 5679
5755 5755 5755 5754 5754 5753 5752 5751 5749 5748 5746 5745 5743 5740 5738 5736 5733 5731 5728 5725 5722 5719 5717 5714 5711 5709 5707 5704 5701 5699 5696 5694 5692 5690 5689 5687 5685 5683 5682 5680 5679 5677 5676
5753 5753 5753 5753 5752 5752 5751 5749 5748 5747 5745 5743 5741 5739 5737 5735 5732 5730 5727 5724 5722 5719 5716 5713 5711 5708 5706 5703 5701 5698 5696 5693 5691 5689 5687 5685 5683 5681 5679 5678 5676 5675 5673